Other Public Products
Issued by NWS Grand Forks, ND

Home | Current Version | Previous Version | Graphics & Text | Print | Product List | Glossary On
Versions: 1 2 3 4 5 6 7 8 9 10 11 12 13 14 15 16 17 18 19 20 21 22 23 24 25 26 27 28 29 30 31 32 33 34 35 36 37 38 39 40 41 42 43 44 45 46 47 48 49 50
000
FPUS83 KFGF 031331
OPUFGF
PRAIRIE TO PINES WEATHER ROUNDUP
NATIONAL WEATHER SERVICE EASTERN NORTH DAKOTA/GRAND FORKS ND
800 AM CDT MON AUG 03 2015

 **SATELLITE DATA USED TO AUGMENT SKY COVER AT AUTOMATED STATIONS**
 *****  WEATHER ACROSS EASTERN NORTH DAKOTA  *****

CITY           SKY/WX    TMP DP  RH WIND       PRES   REMARKS
GRAND FORKS    SUNNY     57  52  83 W7        29.92R
GRAND FORKS AF SUNNY     57  51  80 W9        29.93R
GRAND CITY NWS   N/A     54 N/A N/A W5          N/A
BUXTON         NOT AVBL
DEVILS LAKE    SUNNY     61  48  63 NW8       29.97R
FARGO          SUNNY     59  52  77 VRB3      29.93S
WAHPETON ARPT  SUNNY     59  50  72 NW5       29.96R
$$

 *****  WEATHER ACROSS CENTRAL AND WESTERN NORTH DAKOTA  *****

CITY           SKY/WX    TMP DP  RH WIND       PRES   REMARKS
JAMESTOWN      SUNNY     60  52  74 NW10      29.98R
BISMARCK       SUNNY     59  53  80 W5        30.03R
MINOT          SUNNY     59  49  69 W7        30.01R
MINOT AFB      SUNNY     57  55  91 W6        30.00R
GARRISON         N/A     56  52  86 NW3       30.03R
WILLISTON      SUNNY     56  50  80 CALM      30.05R
DICKINSON      SUNNY     55  50  83 CALM      30.05R
HETTINGER      SUNNY     51  47  86 CALM      30.07R
$$

 *****  OTHER OBSERVATIONS NORTHEAST NORTH DAKOTA  *****

CITY           SKY/WX    TMP DP  RH WIND       PRES   REMARKS
WALHALLA       FAIR      59  55  88 MISG      29.95R
LANGDON        FAIR      54  50  87 NW8       29.97R
CAVALIER       FAIR      59  52  77 NW10      29.93R
GRAFTON        FAIR      59  50  72 NW10      29.94R
CANDO            N/A     57  52  82 NW8       29.99R
FORT TOTTEN      N/A     56  56  99 W2        29.95S
ROLLA          FAIR      59  50  72 NW8       30.00S
RUGBY          NOT AVBL
 ***** THE ABOVE OBSERVATIONS ARE NON NWS ARE NOT QUALITY
        CONTROLLED AND MAY MIS-REPORT RAIN FOR SNOW...
$$

 *****  OTHER OBSERVATIONS SOUTHEAST NORTH DAKOTA *****

CITY           SKY/WX    TMP DP  RH WIND       PRES   REMARKS
COOPERSTOWN    NOT AVBL
VALLEY CITY    FAIR      59  55  88 NW10      29.98R
OAKES            N/A     59  57  94 NW5       29.99R
GWINNER        FAIR      61  54  77 W5        29.98R
BUFFALO        NOT AVBL
WYNDMERE       NOT AVBL
 ***** THE ABOVE OBSERVATIONS ARE NON NWS ARE NOT QUALITY
       CONTROLLED AND MAY MIS-REPORT RAIN FOR SNOW...
$$

  *****  WEATHER ACROSS NORTHERN MINNESOTA  *****

CITY           SKY/WX    TMP DP  RH WIND       PRES   REMARKS
FLAG ISLAND    CLOUDY    55  54  94 NW15      29.83S
WARROAD        SUNNY     57  52  82 W8        29.88R
ROSEAU         SUNNY     59  54  82 NW9       29.88S
HALLOCK        SUNNY     59  52  77 NW13      29.92R
THF RVR FALLS  SUNNY     57  50  77 NW6       29.92R
HALSTAD        NOT AVBL
FOSSTON        SUNNY     57  50  77 W5        29.93R
BAUDETTE       CLOUDY    58  53  84 W13       29.85R
WASKISH        SUNNY     59  52  77 W12G17    29.87S
CROOKSTON      SUNNY     57  54  88 NW5       29.93R
$$
  *****  WEATHER ACROSS CENTRAL AND WEST MINNESOTA  *****

CITY           SKY/WX    TMP DP  RH WIND       PRES   REMARKS
BEMIDJI        SUNNY     59  49  69 W8        29.90S
PARK RAPIDS    SUNNY     57  50  77 W8        29.92R
WADENA         SUNNY     59  52  77 W5        29.92S
DETROIT LAKES  SUNNY     59  50  72 NW6       29.95R
MOORHEAD       SUNNY     57  52  82 CALM      29.95R
FERGUS FALLS   SUNNY     57  52  82 N7        29.95R
ELBOW LAKE     FAIR      58  53  86 NW7       29.95R
MORRIS MN      SUNNY     61  55  82 NW6       29.95R
STAPLES        SUNNY     57  52  82 W6        29.92S
WHEATON        SUNNY     61  54  77 W7        29.97S
$$
  *****  WEATHER ELSEWHERE ACROSS MINNESOTA  *****

CITY           SKY/WX    TMP DP  RH WIND       PRES   REMARKS
DULUTH         MOSUNNY   61  49  64 NW13G23   29.82R
INTRNTL FALLS  CLOUDY    59  52  77 W7        29.81R
ELY            CLOUDY    57  48  72 NW9G17    29.79R
CLOQUET        SUNNY     61  48  63 W12G18    29.84R
BRAINERD       SUNNY     63  48  58 NW10      29.90R
HIBBING        CLOUDY    59  50  72 NW14G20   29.82S
ALEXANDRIA     SUNNY     61  54  77 VRB5      29.95R
SAINT CLOUD    SUNNY     60  54  80 NW7       29.91R
MINNEAPOLIS    SUNNY     66  53  63 NW7       29.89R
$$

  *****  WEATHER ACROSS SOUTH DAKOTA  *****

CITY           SKY/WX    TMP DP  RH WIND       PRES   REMARKS
SIOUX FALLS    MOSUNNY   64  60  87 CALM      29.99R
BROOKINGS      SUNNY     64  55  72 CALM      30.01S
WATERTOWN      SUNNY     61  57  87 N3        29.98R
HURON          SUNNY     60  57  89 CALM      29.99R
SISSETON         N/A     63  56  78 N3        29.95R
ABERDEEN       SUNNY     61  53  75 CALM      29.99R
MITCHELL       SUNNY     61  59  93 CALM      30.00R
PIERRE         SUNNY     61  55  81 CALM      30.00R
MOBRIDGE       SUNNY     61  59  93 CALM      30.00R
RAPID CITY     MOSUNNY   63  54  72 CALM      30.05R
$$

  *****  SOME WEATHER IN NEARBY STATES *****

CITY           SKY/WX    TMP DP  RH WIND       PRES   REMARKS
GLASGOW MT     SUNNY     59  49  69 E9        30.03R
GREAT FALLS MT PTCLDY    58  46  64 CALM      29.95R
CHEYENNE WY    CLOUDY    63  50  62 W6        30.14R
SCOTTSBLUFF NE PTSUNNY   62  56  80 N5        30.03R
OMAHA NE       PTSUNNY   69  64  84 N5        29.95S
DES MOINES IA  MOSUNNY   71  58  63 N3        29.94R
DAVENPORT IA   SUNNY     67  61  81 N8        29.89R
CHICAGO IL     MOSUNNY   71  60  68 NW13      29.83R
EAU CLAIRE WI  SUNNY     61  51  70 W8        29.85R
LA CROSSE WI   SUNNY     67  55  65 S5        29.88R
$$

  *****  SOME NATIONAL WEATHER *****

CITY           SKY/WX    TMP DP  RH WIND       PRES   REMARKS
LA GUARDIA NY  MOSUNNY   81  60  48 SW10      29.84F
RALEIGH NC     PTSUNNY   79  72  78 SW8       29.95R
ATLANTA GA     MOSUNNY   78  68  71 CALM      29.96R
NEW ORLEANS LA PTSUNNY   83  75  77 NW6       29.91R HX  90
OKLAHOMA CITY  CLOUDY    73  65  75 SW5       29.97R
ALBUQUERQUE NM PTCLDY    65  59  81 S3        30.17R
SALT LAKE CITY LGT RAIN  64  61  90 E10       30.06R
LOS ANGELES CA PTCLDY    67  62  84 N3        29.89R
BOISE ID       CLOUDY    78  47  33 N5        29.87R
SEATTLE WA     MOCLDY    63  53  70 NW3       29.91R
$$

*** WEATHER ACROSS MANITOBA...SASKATCHEWAN AND ONTARIO ***
                ***ONTARIO***

CITY           SKY/WX    TMP DP  RH WIND       PRES   REMARKS
GERALDTON      LGT RAIN  54  52  94 W6        29.62S
THUNDER BAY    PTSUNNY   61  54  77 W12       29.69S
SIOUX LOOKOUT  CLOUDY    55  50  82 NW13G18   29.75R
TORONTO        MOSUNNY   68  61  77 W18G26    29.70R
BIG TROUT LK   CLOUDY    48  46  93 NW10      29.69R FOG
PICKLE LAKE    LGT RAIN  48  46  93 NW8       29.67R
DRYDEN         CLOUDY    57  52  82 W8        29.78R
KENORA         PTSUNNY   57  50  77 NW9       29.83R
$$
                *** MANITOBA***

CITY           SKY/WX    TMP DP  RH WIND       PRES   REMARKS
BRANDON        MOSUNNY   52  50  93 W6        29.97R
DAUPHIN        SUNNY     55  52  88 W8        29.95R
ISLAND LAKE    NOT AVBL
PILOT MOUND      N/A     52  50  93 NW2         N/A
THE PAS        MOSUNNY   59  50  72 NW7       29.92R
THOMPSON       LGT RAIN  52  50  93 N12       29.87  FOG
WINNIPEG       MOSUNNY   59  52  77 NW9       29.91R
LYNN LAKE      CLOUDY    52  50  93 NW5       29.94R
CHURCHILL      LGT RAIN  46  45  93 NE9       29.86S
GILLAM         CLOUDY    46  45  93 N12       29.83R
$$
                ***SASKATCHEWAN***

CITY           SKY/WX    TMP DP  RH WIND       PRES   REMARKS
ESTEVAN        MOSUNNY   55  52  88 NW5       30.04
KINDERSLEY     PTSUNNY   59  54  82 SE6       29.99S
LLOYDMINSTER   PTSUNNY   61  52  72 S7        29.98R
PRINCE ALBERT  MOSUNNY   55  54  94 W3        29.99S
REGINA         MOSUNNY   57  52  82 S2        30.04R
YORKTON        SUNNY     57  54  88 W5        29.99R



USA.gov is the U.S. government's official web portal to all federal, state and local government web resources and services.